Terminal Aerodrome Forecast
Issued by NWS Tampa Bay Area, FL

Home | Current Version | Previous Version | Text Only | Print | Product List | Glossary On
Versions: 1 2 3 4 5 6 7 8 9 10 11 12 13 14 15 16 17 18 19 20 21 22 23 24 25
000
FTUS42 KTBW 231100
TAFTPA
TAF
KTPA 231134Z 2312/2412 VRB04KT P6SM FEW015 SCT250
     FM231500 24006KT P6SM SCT025 SCT250
     FM231700 26007KT P6SM VCTS SCT035CB SCT100 BKN250
     FM240000 VRB06KT P6SM FEW035 SCT150=

USA.gov is the U.S. government's official web portal to all federal, state and local government web resources and services.